Home > Weather > Hingoli > Past weeks

Flag for India Past Weather in Hingoli, Maharashtra, India — Yesterday and Last 2 Weeks

Now
82 °F

Haze.


Feels Like: 92 °F
Forecast: 76 / 86 °F
Wind: No wind

Location: Nagpur Sonegaon

Current Time: Aug 29, 2016 at 7:49:52 AM

Latest Report: Aug 29, 2016 at 7:00 AM


Visibility: 1 mi

Pressure: 29.74 "Hg

Humidity: 89%

Dew Point: 79 °F

Location of HingoliLocation

Past Weather in Hingoli — Graph

°F

Hingoli Temperature Yesterday

Maximum temperature yesterday: 93 °F (at 3:30 PM)
Minimum temperature yesterday: 79 °F (at 6:00 AM)
Average temperature yesterday: 87 °F

High & Low Weather Summary for the Past Weeks

 TemperatureHumidityPressure
High95 °F (Aug 25, 4:30 PM)94% (Aug 24, 6:30 AM)29.80 "Hg (Aug 24, 6:30 AM)
Low75 °F (Aug 17, 4:30 AM)33% (Aug 17, 12:30 PM)29.53 "Hg (Aug 16, 4:30 PM)
Average83 °F73%29.67 "Hg
* Reported Aug 14 5:30 AM — Aug 29 6:00 AM, Hingoli, Weather by CustomWeather, © 2016

Note: Actual official high and low records may vary slightly from our data, if they occured in-between our weather recording intervals... More about our weather records

Advertising

Hingoli Weather History for the Previous 24 Hours

Scroll right to see more
 ConditionsComfort  
Time TempWeatherWind HumidityBarometerVisibility
6:00 AM
Mon, Aug 29
81 °FHaze.No wind89%29.71 "Hg1 mi
4:00 AM81 °FHaze.No wind89%29.71 "Hg2 mi
3:00 AM82 °FHaze.No wind84%29.71 "Hg2 mi
2:30 AM82 °FHaze.No wind84%29.71 "Hg2 mi
1:30 AM82 °FHaze.2 mph84%29.74 "Hg2 mi
1:00 AM84 °FHaze.2 mph79%29.74 "Hg2 mi
12:30 AM84 °FHaze.2 mph79%29.74 "Hg2 mi
10:30 PM
Sun, Aug 28
84 °FHaze.No wind79%29.74 "Hg2 mi
9:30 PM86 °FHaze.No wind79%29.74 "Hg2 mi
7:30 PM88 °FPassing clouds.No wind70%29.71 "Hg2 mi
7:00 PM90 °FPartly sunny.2 mph67%29.71 "Hg2 mi
6:30 PM91 °FPartly sunny.2 mph63%29.68 "Hg2 mi
6:00 PM91 °FHaze.3 mph63%29.68 "Hg2 mi
5:00 PM93 °FScattered clouds.No wind59%29.68 "Hg2 mi
4:30 PM93 °FScattered clouds.2 mph59%29.68 "Hg2 mi
4:00 PM93 °FScattered clouds.5 mph59%29.68 "Hg2 mi
3:30 PM93 °FScattered clouds.6 mph59%29.68 "Hg2 mi
3:00 PM91 °FScattered clouds.6 mph63%29.71 "Hg2 mi
2:30 PM91 °FScattered clouds.7 mph63%29.71 "Hg2 mi
2:00 PM91 °FScattered clouds.7 mph63%29.74 "Hg2 mi
1:00 PM90 °FScattered clouds.7 mph67%29.74 "Hg3 mi
12:30 PM90 °FScattered clouds.8 mph67%29.77 "Hg3 mi
12:00 PM90 °FScattered clouds.8 mph67%29.77 "Hg3 mi
11:30 AM90 °FScattered clouds.8 mph63%29.77 "Hg3 mi
11:00 AM90 °FScattered clouds.2 mph67%29.77 "Hg3 mi
10:30 AM90 °FScattered clouds.2 mph67%29.77 "Hg3 mi
9:30 AM86 °FScattered clouds.3 mph75%29.80 "Hg2 mi
9:00 AM84 °FScattered clouds.6 mph84%29.80 "Hg1 mi
8:30 AM84 °FHaze.5 mph79%29.80 "Hg1 mi
7:30 AM82 °FScattered clouds.No wind89%29.77 "Hg1 mi
7:00 AM81 °FFog.2 mph94%29.77 "Hg1 mi
Weather by CustomWeather, © 2016

See weather overviewHow to use our weather pages